Location: Birkenwerder
(52.6919°N, 13.2774°E)
Time: 23:46:41
(UTC+00:00)

Cosmos 1570 Rocket - Pass Details

Date: 08 October 2020
Orbit: 763 x 788 km, 74.1° (Epoch: 24 October)

Event Time Altitude Azimuth Distance (km) Brightness Sun altitude
Exits shadow 01:41:25 37° 2° (N) 1,226 5.2 -32.2°
Drops below altitude 10° 01:44:45 10° 20° (NNE) 2,364 7.2 -31.8°
Sets 01:47:13 0° 25° (NNE) 3,295 8.1 -31.5°
